sat.trackr.live / text

‹ back to catalog

STARLINK-34797

NORAD 65363 · 2025-190N

PAYLOAD ACTIVE UNKNOWN

§ Identity

Operator
Country
US
Launch date
2025-08-28
Launch site
AFETR
Launch vehicle
Mass (kg)
RCS (m²)

Purposes: comms

External: N2YO · Heavens-Above · Gunter

§ Orbital elements

Epoch: 2026-05-25T02:28:29.872128Z

Period
93.91 min
Inclination
53.1579°
Eccentricity
0.0001889
Mean motion
15.33327095 rev/d
Perigee alt
464.6 km
Apogee alt
467.2 km
Semi-major
6,844.0 km
B*
3.4748e-3
RAAN
173.3040°
Arg perigee
342.5571°
Mean anomaly
17.5366°
Rev number
4,145

§ Raw data

STARLINK-347971 65363U 25190N   26145.10312352  .00114864  00000+0  34748-2 0  99962 65363  53.1579 173.3040 0001889 342.5571  17.5366 15.33327095 41456

JSON: /api/v1/satellites/65363 · /tle

For live sub-satellite position, see the globe view (requires WebGL).

§ Visibility from observer

Set your observer location to see the next 7 days of passes ≥ 10°. The values pass through the URL so the page stays shareable.

No JS? Fill the form by hand. The geolocation button needs JavaScript.